DLH778 EGKK-EDDM

Flight info

Callsign DLH778
Flight time 0h 41m
Altitude 23000
Route DVR L9 KONAN/N0487F410 UL607 SPI DCT MOVUM T109 HAREM/N0451F230 T104 ROKIL ROKIL1B
Aircraft A359/H-SDE2E3GHIJ3J4J5LM1ORWXY/LB1D1

Departure

Time 2026-05-05 12:18
Airport London Gatwick Airport (EGKK)

Arrival

Time 2026-05-05 13:00
Airport Munich Airport (EDDM)
Time Latitude Longitude Altitude Speed Heading
2026-05-05 11:51 51.15924 -0.17959 215 ft 0 kts 78°
2026-05-05 12:03 51.15923 -0.17965 214 ft 3 kts 78°
2026-05-05 12:04 51.15917 -0.18007 219 ft 4 kts 78°
2026-05-05 12:04 51.15913 -0.18041 212 ft 2 kts 78°
2026-05-05 12:04 51.15912 -0.18079 214 ft 4 kts 118°
2026-05-05 12:04 51.15929 -0.18107 215 ft 4 kts 157°
2026-05-05 12:05 51.15944 -0.18116 221 ft 0 kts 168°
2026-05-05 12:07 51.15917 -0.18107 217 ft 8 kts 168°
2026-05-05 12:08 51.15854 -0.18084 216 ft 10 kts 167°
2026-05-05 12:08 51.15781 -0.18059 212 ft 11 kts 167°
2026-05-05 12:08 51.15709 -0.18050 221 ft 10 kts 200°
2026-05-05 12:08 51.15674 -0.18144 218 ft 11 kts 255°
2026-05-05 12:09 51.15658 -0.18260 218 ft 12 kts 257°
2026-05-05 12:09 51.15647 -0.18335 215 ft 11 kts 257°
2026-05-05 12:09 51.15626 -0.18359 219 ft 3 kts 181°
2026-05-05 12:09 51.15587 -0.18345 220 ft 9 kts 168°
2026-05-05 12:10 51.15536 -0.18328 214 ft 13 kts 168°
2026-05-05 12:10 51.15432 -0.18292 217 ft 17 kts 168°
2026-05-05 12:10 51.15315 -0.18251 220 ft 15 kts 167°
2026-05-05 12:10 51.15220 -0.18222 213 ft 9 kts 184°
2026-05-05 12:11 51.15195 -0.18280 221 ft 8 kts 249°
2026-05-05 12:11 51.15179 -0.18380 215 ft 11 kts 258°
2026-05-05 12:11 51.15161 -0.18511 219 ft 13 kts 257°
2026-05-05 12:11 51.15139 -0.18671 213 ft 16 kts 257°
2026-05-05 12:12 51.15113 -0.18858 217 ft 18 kts 257°
2026-05-05 12:12 51.15084 -0.19067 219 ft 20 kts 257°
2026-05-05 12:12 51.15053 -0.19295 219 ft 22 kts 257°
2026-05-05 12:12 51.15019 -0.19540 219 ft 23 kts 257°
2026-05-05 12:13 51.14984 -0.19793 217 ft 25 kts 257°
2026-05-05 12:13 51.14946 -0.20069 217 ft 25 kts 257°
2026-05-05 12:13 51.14913 -0.20308 221 ft 15 kts 257°
2026-05-05 12:13 51.14894 -0.20450 221 ft 14 kts 257°
2026-05-05 12:14 51.14871 -0.20617 220 ft 17 kts 257°
2026-05-05 12:14 51.14844 -0.20808 218 ft 19 kts 257°
2026-05-05 12:14 51.14819 -0.20995 215 ft 13 kts 257°
2026-05-05 12:14 51.14796 -0.21132 222 ft 13 kts 249°
2026-05-05 12:15 51.14771 -0.21273 210 ft 13 kts 257°
2026-05-05 12:15 51.14750 -0.21382 216 ft 8 kts 232°
2026-05-05 12:15 51.14736 -0.21392 221 ft 0 kts 196°
2026-05-05 12:16 51.14719 -0.21396 219 ft 7 kts 184°
2026-05-05 12:16 51.14656 -0.21351 221 ft 12 kts 151°
2026-05-05 12:16 51.14568 -0.21301 210 ft 15 kts 151°
2026-05-05 12:17 51.14523 -0.21156 214 ft 15 kts 84°
2026-05-05 12:17 51.14544 -0.20986 216 ft 19 kts 77°
2026-05-05 12:17 51.14620 -0.20445 218 ft 87 kts 77°
2026-05-05 12:17 51.14799 -0.19143 219 ft 151 kts 77°
2026-05-05 12:18 51.15059 -0.17282 522 ft 182 kts 77°
2026-05-05 12:18 51.15334 -0.15274 1318 ft 184 kts 78°
2026-05-05 12:18 51.15603 -0.13227 2033 ft 199 kts 78°
2026-05-05 12:18 51.15901 -0.10933 2419 ft 223 kts 78°
2026-05-05 12:19 51.16239 -0.08354 2818 ft 250 kts 78°
2026-05-05 12:19 51.16598 -0.05584 3535 ft 260 kts 78°
2026-05-05 12:19 51.16933 -0.02726 4356 ft 264 kts 80°
2026-05-05 12:19 51.17122 0.00206 5199 ft 269 kts 90°
2026-05-05 12:20 51.17007 0.03130 6055 ft 272 kts 95°
2026-05-05 12:20 51.16816 0.06198 7256 ft 272 kts 95°
2026-05-05 12:20 51.16605 0.09187 8276 ft 273 kts 96°
2026-05-05 12:20 51.16388 0.12215 9210 ft 278 kts 96°
2026-05-05 12:21 51.16166 0.15307 10147 ft 283 kts 96°
2026-05-05 12:21 51.15937 0.18503 10733 ft 300 kts 96°
2026-05-05 12:21 51.15690 0.21925 11148 ft 322 kts 96°
2026-05-05 12:21 51.15425 0.25587 11588 ft 342 kts 96°
2026-05-05 12:22 51.15141 0.29404 12304 ft 351 kts 96°
2026-05-05 12:22 51.14849 0.33303 13100 ft 357 kts 96°
2026-05-05 12:22 51.14557 0.37207 13947 ft 361 kts 96°
2026-05-05 12:22 51.14250 0.41197 14729 ft 364 kts 96°
2026-05-05 12:23 51.13942 0.45233 15425 ft 370 kts 96°
2026-05-05 12:23 51.13639 0.49347 16080 ft 377 kts 96°
2026-05-05 12:23 51.13341 0.53511 16841 ft 380 kts 96°
2026-05-05 12:23 51.13044 0.57719 17558 ft 385 kts 96°
2026-05-05 12:24 51.12745 0.61993 18243 ft 391 kts 96°
2026-05-05 12:24 51.12446 0.66324 18926 ft 395 kts 96°
2026-05-05 12:24 51.12153 0.70689 19588 ft 399 kts 96°
2026-05-05 12:24 51.11863 0.75116 20218 ft 405 kts 96°
2026-05-05 12:25 51.11579 0.79592 20893 ft 408 kts 96°
2026-05-05 12:25 51.11304 0.84118 21544 ft 413 kts 96°
2026-05-05 12:25 51.11026 0.88699 22171 ft 418 kts 96°
2026-05-05 12:25 51.10758 0.93333 22743 ft 422 kts 96°
2026-05-05 12:26 51.10502 0.97990 22953 ft 425 kts 96°
2026-05-05 12:26 51.10252 1.02779 22971 ft 444 kts 96°
2026-05-05 12:26 51.10004 1.07699 22967 ft 447 kts 96°
2026-05-05 12:26 51.09754 1.12625 22964 ft 447 kts 96°
2026-05-05 12:27 51.09498 1.17552 22964 ft 447 kts 96°
2026-05-05 12:27 51.09249 1.22480 22962 ft 447 kts 96°
2026-05-05 12:27 51.08995 1.27350 22962 ft 447 kts 96°
2026-05-05 12:27 51.08737 1.32279 22962 ft 447 kts 96°
2026-05-05 12:28 51.08484 1.37201 22959 ft 447 kts 96°
2026-05-05 12:28 51.08222 1.42120 22955 ft 447 kts 96°
2026-05-05 12:28 51.07964 1.47045 22961 ft 445 kts 96°
2026-05-05 12:28 51.07704 1.51940 22953 ft 444 kts 96°
2026-05-05 12:29 51.07439 1.56832 22949 ft 444 kts 97°
2026-05-05 12:29 51.07180 1.61714 22949 ft 443 kts 96°
2026-05-05 12:29 51.06914 1.66603 22949 ft 444 kts 97°
2026-05-05 12:29 51.06646 1.71504 22944 ft 444 kts 96°
2026-05-05 12:30 51.06382 1.76385 22944 ft 444 kts 96°
2026-05-05 12:30 51.06112 1.81277 22947 ft 444 kts 97°
2026-05-05 12:30 51.05845 1.86159 22947 ft 443 kts 96°
2026-05-05 12:30 51.05648 1.91045 22934 ft 444 kts 92°
2026-05-05 12:31 51.05725 1.95971 22941 ft 445 kts 89°
2026-05-05 12:31 51.05918 2.00881 22938 ft 445 kts 87°
2026-05-05 12:31 51.06178 2.05787 22939 ft 446 kts 86°
2026-05-05 12:31 51.06465 2.10629 22939 ft 446 kts 86°
2026-05-05 12:32 51.06761 2.15535 22938 ft 446 kts 85°
2026-05-05 12:32 51.07055 2.20453 22939 ft 446 kts 86°
2026-05-05 12:32 51.07341 2.25365 22938 ft 446 kts 86°
2026-05-05 12:32 51.07911 2.35567 22932 ft 445 kts 86°
2026-05-05 12:33 51.08442 2.45430 22933 ft 447 kts 87°
2026-05-05 12:33 51.08962 2.55271 22933 ft 447 kts 87°
2026-05-05 12:33 51.09121 2.65119 22928 ft 445 kts 98°
2026-05-05 12:33 51.07831 2.74709 22927 ft 443 kts 106°
2026-05-05 12:34 51.06137 2.84120 22930 ft 443 kts 108°
2026-05-05 12:34 51.04364 2.93526 22935 ft 446 kts 108°
2026-05-05 12:34 51.02604 3.02972 22931 ft 445 kts 108°
2026-05-05 12:34 51.00861 3.12410 22925 ft 446 kts 107°
2026-05-05 12:35 50.97585 3.30093 22912 ft 446 kts 108°
2026-05-05 12:35 50.94073 3.48846 22908 ft 449 kts 108°
2026-05-05 12:35 50.90498 3.67761 22911 ft 449 kts 108°
2026-05-05 12:35 50.86837 3.86680 22913 ft 449 kts 108°
2026-05-05 12:36 50.83146 4.05577 22911 ft 449 kts 109°
2026-05-05 12:36 50.79429 4.24452 22909 ft 450 kts 109°
2026-05-05 12:36 50.75684 4.43288 22911 ft 450 kts 109°
2026-05-05 12:36 50.71900 4.62145 22910 ft 450 kts 109°
2026-05-05 12:37 50.68246 4.81006 22898 ft 449 kts 108°
2026-05-05 12:37 50.64548 4.99808 22895 ft 448 kts 109°
2026-05-05 12:37 50.60654 5.18511 22894 ft 449 kts 110°
2026-05-05 12:37 50.56766 5.37174 22885 ft 450 kts 110°
2026-05-05 12:38 50.52838 5.55897 22871 ft 449 kts 110°
2026-05-05 12:38 50.49149 5.74679 22870 ft 449 kts 108°
2026-05-05 12:38 50.45806 5.93581 22858 ft 449 kts 108°
2026-05-05 12:38 50.42347 6.12407 22843 ft 448 kts 108°
2026-05-05 12:39 50.38860 6.31159 22832 ft 448 kts 108°
2026-05-05 12:39 50.35387 6.49660 22820 ft 449 kts 109°
2026-05-05 12:39 50.31828 6.68428 22821 ft 450 kts 109°
2026-05-05 12:39 50.28230 6.87221 22827 ft 450 kts 109°
2026-05-05 12:40 50.24602 7.05977 22832 ft 452 kts 109°
2026-05-05 12:40 50.20926 7.24794 22834 ft 452 kts 109°
2026-05-05 12:40 50.17228 7.43548 22826 ft 451 kts 109°
2026-05-05 12:40 50.13517 7.62184 22834 ft 450 kts 109°
2026-05-05 12:41 50.09772 7.80814 22823 ft 450 kts 109°
2026-05-05 12:41 50.05981 7.99487 22836 ft 452 kts 110°
2026-05-05 12:41 50.02159 8.18138 22852 ft 452 kts 110°
2026-05-05 12:41 49.98298 8.36806 22850 ft 455 kts 110°
2026-05-05 12:42 49.93968 8.55219 22827 ft 452 kts 119°
2026-05-05 12:42 49.87829 8.72218 22823 ft 451 kts 122°
2026-05-05 12:42 49.81579 8.88945 22824 ft 447 kts 122°
2026-05-05 12:42 49.75333 9.05661 22817 ft 447 kts 122°
2026-05-05 12:43 49.69086 9.22271 22828 ft 448 kts 122°
2026-05-05 12:43 49.62879 9.38658 22824 ft 447 kts 124°
2026-05-05 12:43 49.55057 9.53470 22824 ft 445 kts 133°
2026-05-05 12:43 49.46852 9.67708 22825 ft 445 kts 133°
2026-05-05 12:44 49.38654 9.81957 22828 ft 445 kts 133°
2026-05-05 12:44 49.30435 9.96156 22829 ft 444 kts 134°
2026-05-05 12:44 49.22220 10.10247 22829 ft 444 kts 134°
2026-05-05 12:44 49.13990 10.24324 22850 ft 443 kts 134°
2026-05-05 12:45 49.05541 10.37967 22858 ft 441 kts 136°
2026-05-05 12:45 48.97056 10.51478 22859 ft 441 kts 136°
2026-05-05 12:45 48.88583 10.64954 22843 ft 442 kts 136°
2026-05-05 12:45 48.80063 10.78433 22826 ft 442 kts 136°
2026-05-05 12:46 48.71512 10.91841 22811 ft 442 kts 136°
2026-05-05 12:46 48.65503 11.01216 22803 ft 443 kts 136°
2026-05-05 12:46 48.61045 11.08131 22803 ft 443 kts 136°
2026-05-05 12:46 48.51524 11.19534 22397 ft 423 kts 144°
2026-05-05 12:47 48.43347 11.31478 20102 ft 408 kts 123°
2026-05-05 12:47 48.42542 11.48390 17398 ft 415 kts 85°
2026-05-05 12:47 48.43924 11.65347 14645 ft 402 kts 85°
2026-05-05 12:47 48.45204 11.81861 11842 ft 388 kts 85°
2026-05-05 12:48 48.46360 11.97071 10694 ft 334 kts 85°
2026-05-05 12:48 48.47297 12.09657 10182 ft 282 kts 85°
2026-05-05 12:48 48.48166 12.21525 8909 ft 293 kts 85°
2026-05-05 12:48 48.48777 12.33615 8002 ft 286 kts 101°
2026-05-05 12:49 48.43245 12.39544 7496 ft 266 kts 197°
2026-05-05 12:49 48.40395 12.33073 6492 ft 275 kts 264°
2026-05-05 12:49 48.40086 12.27318 5725 ft 275 kts 263°
2026-05-05 12:49 48.39699 12.21669 5321 ft 262 kts 262°
2026-05-05 12:50 48.39463 12.18541 5226 ft 247 kts 262°
2026-05-05 12:50 48.39260 12.16024 5108 ft 237 kts 263°
2026-05-05 12:50 48.39111 12.13614 5006 ft 225 kts 262°
2026-05-05 12:50 48.38872 12.11354 4995 ft 212 kts 251°
2026-05-05 12:51 48.38056 12.09648 5006 ft 200 kts 216°
2026-05-05 12:51 48.36784 12.08880 5007 ft 200 kts 183°
2026-05-05 12:51 48.35414 12.09167 5016 ft 200 kts 165°
2026-05-05 12:51 48.34192 12.10147 5014 ft 203 kts 134°
2026-05-05 12:52 48.33561 12.12003 5013 ft 202 kts 99°
2026-05-05 12:52 48.33539 12.14110 5014 ft 202 kts 87°
2026-05-05 12:52 48.33663 12.16196 5015 ft 203 kts 85°
2026-05-05 12:52 48.33807 12.18312 5015 ft 204 kts 85°
2026-05-05 12:53 48.33956 12.20460 5017 ft 205 kts 84°
2026-05-05 12:53 48.34198 12.22528 4999 ft 206 kts 70°
2026-05-05 12:53 48.35077 12.24185 5005 ft 207 kts 33°
2026-05-05 12:53 48.36437 12.24771 5016 ft 207 kts 357°
2026-05-05 12:54 48.38586 12.22372 5002 ft 202 kts 290°
2026-05-05 12:54 48.38944 12.20328 5004 ft 203 kts 280°
2026-05-05 12:54 48.39200 12.18227 5008 ft 204 kts 277°
2026-05-05 12:55 48.39144 12.13981 5018 ft 203 kts 262°
2026-05-05 12:55 48.38824 12.09791 4996 ft 201 kts 262°
2026-05-05 12:55 48.38482 12.05683 4575 ft 198 kts 263°
2026-05-05 12:55 48.38191 12.01815 4005 ft 191 kts 263°
2026-05-05 12:56 48.38042 11.99880 3771 ft 181 kts 263°
2026-05-05 12:56 48.37905 11.98067 3540 ft 168 kts 264°
2026-05-05 12:56 48.37778 11.96375 3334 ft 158 kts 264°
2026-05-05 12:56 48.37654 11.94772 3123 ft 150 kts 263°
2026-05-05 12:57 48.37535 11.93266 2939 ft 142 kts 263°
2026-05-05 12:57 48.37426 11.91810 2760 ft 139 kts 263°
2026-05-05 12:57 48.37318 11.90370 2575 ft 139 kts 264°
2026-05-05 12:57 48.37208 11.88925 2397 ft 140 kts 264°
2026-05-05 12:58 48.37134 11.87963 2265 ft 140 kts 264°
2026-05-05 12:58 48.37023 11.86502 2076 ft 142 kts 264°
2026-05-05 12:58 48.36910 11.85024 1885 ft 143 kts 265°
2026-05-05 12:58 48.36758 11.83053 1647 ft 144 kts 264°
2026-05-05 12:59 48.36679 11.82049 1519 ft 142 kts 264°
2026-05-05 12:59 48.36578 11.80678 1479 ft 114 kts 264°
2026-05-05 12:59 48.36503 11.79707 1484 ft 73 kts 263°
2026-05-05 13:00 48.36393 11.78905 1476 ft 17 kts 238°
2026-05-05 13:00 48.36322 11.78750 1476 ft 19 kts 233°
2026-05-05 13:01 48.36051 11.78505 1482 ft 10 kts 141°
2026-05-05 13:01 48.36037 11.78613 1481 ft 12 kts 83°
2026-05-05 13:01 48.36049 11.78745 1476 ft 14 kts 82°
2026-05-05 13:01 48.36062 11.78900 1476 ft 16 kts 83°
2026-05-05 13:02 48.36075 11.79080 1481 ft 18 kts 83°
2026-05-05 13:02 48.36087 11.79260 1478 ft 12 kts 92°
2026-05-05 13:02 48.36038 11.79325 1479 ft 9 kts 169°
2026-05-05 13:02 48.35972 11.79337 1478 ft 10 kts 173°
2026-05-05 13:03 48.35915 11.79365 1484 ft 8 kts 159°
2026-05-05 13:03 48.35885 11.79390 1476 ft 1 kts 132°
2026-05-05 13:03 48.35879 11.79403 1481 ft 2 kts 123°
2026-05-05 13:03 48.35867 11.79437 1480 ft 1 kts 117°
2026-05-05 13:04 48.35853 11.79475 1480 ft 7 kts 122°
2026-05-05 13:04 48.35813 11.79525 1479 ft 8 kts 155°
2026-05-05 13:04 48.35760 11.79537 1487 ft 8 kts 173°
2026-05-05 13:04 48.35703 11.79547 1484 ft 8 kts 173°
2026-05-05 13:05 48.35644 11.79557 1484 ft 9 kts 173°
2026-05-05 13:05 48.35581 11.79568 1486 ft 9 kts 173°
2026-05-05 13:05 48.35516 11.79575 1488 ft 10 kts 183°
2026-05-05 13:05 48.35448 11.79528 1476 ft 12 kts 218°
2026-05-05 13:06 48.35377 11.79462 1476 ft 11 kts 217°
2026-05-05 13:06 48.35352 11.79383 1479 ft 3 kts 262°
2026-05-05 13:06 48.35350 11.79356 1479 ft 1 kts 263°
2026-05-05 13:06 48.35349 11.79353 1479 ft 0 kts 263°
2026-05-05 13:07 48.35349 11.79347 1480 ft 2 kts 263°
2026-05-05 13:07 48.35348 11.79342 1483 ft 0 kts 263°
2026-05-05 13:07 48.35348 11.79335 1482 ft 2 kts 263°
2026-05-05 13:07 48.35347 11.79324 1482 ft 0 kts 263°